| time (UTC) | temp C | wind direction | speed KPH | gust KPH | rain 1hr cm | rain 24hr cm | rain mn cm | humidity % | barometer mb |
| 20260902040105 | 18 | 168 | 3.2 | 12.9 | 0.00 | 1.47 | 0.00 | 92 | 1019.8 |
| 20260902035604 | 18 | 179 | 4.8 | 8.0 | 0.00 | 1.50 | 1.50 | 92 | 1019.7 |
| 20260902035104 | 18 | 163 | 1.6 | 9.7 | 0.00 | 1.50 | 1.50 | 92 | 1019.6 |
| 20260902034106 | 18 | 127 | 3.2 | 4.8 | 0.00 | 1.52 | 1.50 | 92 | 1019.4 |
| 20260902033605 | 18 | 155 | 4.8 | 11.3 | 0.00 | 1.55 | 1.50 | 92 | 1019.2 |
| 20260902033106 | 18 | 174 | 8.0 | 12.9 | 0.00 | 1.57 | 1.50 | 92 | 1019.2 |
| 20260902032606 | 18 | 170 | 4.8 | 11.3 | 0.00 | 1.60 | 1.50 | 92 | 1019.1 |
| 20260902032105 | 18 | 196 | 4.8 | 11.3 | 0.00 | 1.60 | 1.50 | 91 | 1019.1 |
| 20260902031604 | 18 | 163 | 3.2 | 11.3 | 0.00 | 1.60 | 1.50 | 92 | 1019.1 |
| 20260902031105 | 18 | 177 | 4.8 | 16.1 | 0.00 | 1.60 | 1.50 | 91 | 1019.0 |
| 20260902030605 | 19 | 169 | 4.8 | 11.3 | 0.00 | 1.60 | 1.50 | 91 | 1018.9 |
| 20260902030104 | 19 | 169 | 6.4 | 12.9 | 0.00 | 1.60 | 1.50 | 91 | 1018.9 |
| 20260902025105 | 19 | 160 | 3.2 | 11.3 | 0.00 | 1.63 | 1.50 | 91 | 1018.6 |
| 20260902024605 | 19 | 149 | 3.2 | 12.9 | 0.00 | 1.63 | 1.50 | 91 | 1018.5 |
| 20260902024104 | 19 | 137 | 4.8 | 9.7 | 0.00 | 1.63 | 1.50 | 91 | 1018.5 |
| 20260902023604 | 19 | 157 | 3.2 | 9.7 | 0.00 | 1.63 | 1.50 | 91 | 1018.6 |
| 20260902023105 | 19 | 150 | 8.0 | 14.5 | 0.00 | 1.63 | 1.50 | 91 | 1018.6 |
| 20260902021605 | 20 | 185 | 4.8 | 12.9 | 0.00 | 1.63 | 1.50 | 91 | 1018.4 |
| 20260902021104 | 20 | 175 | 4.8 | 14.5 | 0.00 | 1.63 | 1.50 | 91 | 1018.5 |
| 20260902020104 | 20 | 151 | 3.2 | 9.7 | 0.00 | 1.63 | 1.50 | 91 | 1018.5 |
| 20260902015104 | 20 | 162 | 3.2 | 11.3 | 0.00 | 1.63 | 1.50 | 91 | 1018.4 |
| 20260902014605 | 20 | 157 | 8.0 | 12.9 | 0.00 | 1.63 | 1.50 | 91 | 1018.4 |
| 20260902014105 | 20 | 152 | 3.2 | 8.0 | 0.00 | 1.63 | 1.50 | 91 | 1018.4 |
| 20260902013106 | 20 | 152 | 1.6 | 4.8 | 0.00 | 1.63 | 1.50 | 91 | 1018.3 |
| 20260902012604 | 20 | 163 | 8.0 | 11.3 | 0.00 | 1.63 | 1.50 | 90 | 1018.2 |
| 20260902012104 | 20 | 158 | 6.4 | 12.9 | 0.00 | 1.63 | 1.50 | 90 | 1018.1 |
| 20260902011605 | 20 | 166 | 4.8 | 12.9 | 0.00 | 1.63 | 1.50 | 90 | 1017.9 |
| 20260902010604 | 20 | 178 | 3.2 | 12.9 | 0.00 | 1.63 | 1.50 | 90 | 1017.9 |
| 20260902010105 | 20 | 137 | 8.0 | 16.1 | 0.00 | 1.63 | 1.50 | 90 | 1017.7 |
| 20260902005605 | 21 | 176 | 4.8 | 14.5 | 0.00 | 1.63 | 1.50 | 90 | 1017.6 |
| 20260902005104 | 21 | 175 | 3.2 | 14.5 | 0.00 | 1.63 | 1.50 | 90 | 1017.4 |
| 20260902004605 | 21 | 169 | 8.0 | 19.3 | 0.00 | 1.63 | 1.50 | 89 | 1017.4 |
| 20260902004104 | 21 | 176 | 6.4 | 16.1 | 0.00 | 1.63 | 1.50 | 89 | 1017.2 |
| 20260902003105 | 21 | 196 | 3.2 | 12.9 | 0.00 | 1.63 | 1.50 | 90 | 1017.2 |
| 20260902002606 | 21 | 167 | 4.8 | 12.9 | 0.00 | 1.63 | 1.50 | 90 | 1016.9 |
| 20260902001605 | 22 | 203 | 3.2 | 11.3 | 0.00 | 1.63 | 1.50 | 91 | 1016.7 |
| 20260902001104 | 22 | 177 | 3.2 | 11.3 | 0.00 | 1.63 | 1.50 | 91 | 1016.7 |
| 20260902000604 | 22 | 69 | 8.0 | 14.5 | 0.00 | 1.63 | 1.50 | 91 | 1016.5 |
| 20260902000106 | 22 | 88 | 6.4 | 14.5 | 0.00 | 1.63 | 1.50 | 91 | 1016.4 |
| 20260901235605 | 22 | 54 | 4.8 | 12.9 | 0.00 | 1.63 | 1.50 | 91 | 1016.3 |
| 20260901235105 | 23 | 17 | 4.8 | 16.1 | 0.00 | 1.63 | 1.50 | 91 | 1016.3 |
| 20260901234605 | 23 | 49 | 9.7 | 16.1 | 0.00 | 1.63 | 1.50 | 91 | 1016.2 |
| 20260901234104 | 23 | 53 | 3.2 | 12.9 | 0.00 | 1.63 | 1.50 | 92 | 1016.2 |
| 20260901233605 | 23 | 30 | 4.8 | 14.5 | 0.00 | 1.63 | 1.50 | 92 | 1016.2 |
| 20260901233104 | 23 | 50 | 8.0 | 19.3 | 0.00 | 1.63 | 1.50 | 92 | 1016.3 |
| 20260901232605 | 24 | 56 | 4.8 | 11.3 | 0.00 | 1.63 | 1.50 | 92 | 1016.2 |
| 20260901232105 | 24 | 14 | 4.8 | 9.7 | 0.00 | 1.63 | 1.50 | 92 | 1016.3 |
| 20260901231605 | 24 | 55 | 3.2 | 4.8 | 0.00 | 1.63 | 1.50 | 92 | 1016.2 |
| 20260901231105 | 24 | 34 | 1.6 | 8.0 | 0.00 | 1.63 | 1.50 | 91 | 1016.2 |
| 20260901230604 | 24 | 29 | 1.6 | 4.8 | 0.00 | 1.63 | 1.50 | 91 | 1016.2 |
| 20260901230105 | 24 | 21 | 3.2 | 9.7 | 0.00 | 1.63 | 1.50 | 91 | 1016.2 |
| 20260901225605 | 25 | 80 | 3.2 | 12.9 | 0.00 | 1.63 | 1.50 | 91 | 1016.0 |
| 20260901225105 | 25 | 87 | 0.0 | 4.8 | 0.00 | 1.63 | 1.50 | 90 | 1016.1 |
| 20260901224104 | 25 | 56 | 8.0 | 14.5 | 0.00 | 1.63 | 1.50 | 90 | 1015.6 |
| 20260901223604 | 25 | 59 | 8.0 | 14.5 | 0.00 | 1.63 | 1.50 | 89 | 1015.5 |
| 20260901223104 | 25 | 82 | 4.8 | 14.5 | 0.00 | 1.63 | 1.50 | 89 | 1015.4 |
| 20260901222604 | 25 | 32 | 3.2 | 8.0 | 0.00 | 1.63 | 1.50 | 88 | 1015.4 |
| 20260901221105 | 26 | 95 | 4.8 | 9.7 | 0.00 | 1.63 | 1.50 | 87 | 1015.2 |
| 20260901220605 | 26 | 114 | 4.8 | 8.0 | 0.00 | 1.63 | 1.50 | 86 | 1015.1 |
| 20260901220104 | 26 | 130 | 4.8 | 12.9 | 0.00 | 1.63 | 1.50 | 85 | 1015.1 |
| 20260901215605 | 26 | 137 | 3.2 | 12.9 | 0.00 | 1.63 | 1.50 | 85 | 1015.1 |
| 20260901215104 | 26 | 153 | 4.8 | 8.0 | 0.00 | 1.63 | 1.50 | 85 | 1015.1 |
| 20260901214605 | 26 | 135 | 3.2 | 11.3 | 0.00 | 1.63 | 1.50 | 85 | 1015.1 |
| 20260901214105 | 26 | 161 | 3.2 | 9.7 | 0.00 | 1.63 | 1.50 | 85 | 1015.0 |
| 20260901212604 | 26 | 157 | 4.8 | 11.3 | 0.00 | 1.63 | 1.50 | 85 | 1014.9 |
| 20260901212105 | 26 | 140 | 3.2 | 4.8 | 0.00 | 1.63 | 1.50 | 85 | 1015.0 |
| 20260901211604 | 26 | 120 | 3.2 | 4.8 | 0.00 | 1.63 | 1.50 | 85 | 1015.0 |
| 20260901210604 | 26 | 169 | 1.6 | 8.0 | 0.00 | 1.63 | 1.50 | 85 | 1015.0 |
| 20260901205605 | 26 | 176 | 3.2 | 4.8 | 0.00 | 1.63 | 1.50 | 85 | 1014.8 |
| 20260901205105 | 26 | 177 | 3.2 | 11.3 | 0.00 | 1.63 | 1.50 | 85 | 1014.9 |
| 20260901204605 | 26 | 157 | 1.6 | 4.8 | 0.00 | 1.63 | 1.50 | 85 | 1014.9 |
| 20260901204105 | 26 | 161 | 3.2 | 9.7 | 0.00 | 1.63 | 1.50 | 84 | 1014.9 |
| 20260901203604 | 27 | 140 | 1.6 | 4.8 | 0.00 | 1.63 | 1.50 | 84 | 1014.9 |
| 20260901203104 | 26 | 140 | 0.0 | 0.0 | 0.00 | 1.63 | 1.50 | 84 | 1014.9 |
| 20260901202605 | 26 | 140 | 1.6 | 3.2 | 0.00 | 1.63 | 1.50 | 84 | 1014.8 |
| 20260901202105 | 26 | 140 | 0.0 | 0.0 | 0.00 | 1.63 | 1.50 | 84 | 1014.8 |
| 20260901201104 | 27 | 140 | 0.0 | 1.6 | 0.00 | 1.63 | 1.50 | 83 | 1014.8 |
| 20260901200605 | 27 | 140 | 0.0 | 3.2 | 0.00 | 1.63 | 1.50 | 84 | 1014.8 |
| 20260901200106 | 27 | 140 | 1.6 | 4.8 | 0.00 | 1.63 | 1.50 | 84 | 1014.8 |
| 20260901195605 | 26 | 140 | 0.0 | 0.0 | 0.00 | 1.63 | 1.50 | 84 | 1014.8 |
| 20260901194605 | 26 | 142 | 3.2 | 4.8 | 0.00 | 1.63 | 1.50 | 84 | 1014.8 |
| 20260901194104 | 26 | 159 | 3.2 | 4.8 | 0.00 | 1.63 | 1.50 | 84 | 1014.8 |
| 20260901193104 | 26 | 159 | 0.0 | 3.2 | 0.00 | 1.63 | 1.50 | 84 | 1014.8 |
| 20260901192605 | 26 | 159 | 3.2 | 4.8 | 0.00 | 1.63 | 1.50 | 84 | 1014.8 |
| 20260901192106 | 26 | 164 | 4.8 | 8.0 | 0.00 | 1.63 | 1.50 | 83 | 1015.0 |
| 20260901191605 | 27 | 168 | 3.2 | 4.8 | 0.00 | 1.63 | 1.50 | 83 | 1015.1 |
| 20260901191104 | 27 | 167 | 4.8 | 11.3 | 0.00 | 1.63 | 1.50 | 83 | 1015.1 |
| 20260901190605 | 26 | 165 | 0.0 | 4.8 | 0.00 | 1.63 | 1.50 | 84 | 1015.1 |
| 20260901190105 | 26 | 164 | 0.0 | 4.8 | 0.00 | 1.63 | 1.50 | 85 | 1015.1 |
| 20260901185105 | 26 | 134 | 4.8 | 11.3 | 0.00 | 1.63 | 1.50 | 85 | 1015.2 |
| 20260901184104 | 26 | 194 | 3.2 | 11.3 | 0.00 | 1.63 | 1.50 | 86 | 1015.3 |
| 20260901183604 | 26 | 136 | 1.6 | 4.8 | 0.00 | 1.63 | 1.50 | 87 | 1015.3 |
| 20260901183104 | 26 | 129 | 1.6 | 4.8 | 0.00 | 1.63 | 1.50 | 87 | 1015.3 |
| 20260901182604 | 26 | 160 | 1.6 | 4.8 | 0.00 | 1.63 | 1.50 | 87 | 1015.2 |
| 20260901182104 | 25 | 130 | 1.6 | 4.8 | 0.00 | 1.63 | 1.50 | 87 | 1015.2 |
| 20260901181605 | 25 | 133 | 3.2 | 8.0 | 0.00 | 1.63 | 1.50 | 88 | 1015.3 |
| 20260901181105 | 25 | 155 | 4.8 | 11.3 | 0.00 | 1.63 | 1.50 | 88 | 1015.2 |
| 20260901180105 | 25 | 153 | 3.2 | 9.7 | 0.00 | 1.63 | 1.50 | 88 | 1015.3 |
| 20260901175605 | 25 | 147 | 0.0 | 4.8 | 0.00 | 1.63 | 1.50 | 90 | 1015.3 |
| 20260901175105 | 25 | 148 | 3.2 | 9.7 | 0.00 | 1.63 | 1.50 | 89 | 1015.3 |
| 20260901174604 | 25 | 169 | 3.2 | 14.5 | 0.00 | 1.63 | 1.50 | 89 | 1015.2 |
| 20260901174105 | 25 | 168 | 1.6 | 4.8 | 0.00 | 1.63 | 1.50 | 89 | 1015.2 |
| 20260901172604 | 25 | 225 | 3.2 | 9.7 | 0.00 | 1.63 | 1.50 | 93 | 1015.2 |
| 20260901172105 | 25 | 172 | 1.6 | 8.0 | 0.00 | 1.63 | 1.50 | 93 | 1015.3 |
| 20260901171604 | 24 | 176 | 4.8 | 12.9 | 0.00 | 1.63 | 1.50 | 95 | 1015.2 |
| 20260901171104 | 25 | 170 | 1.6 | 11.3 | 0.00 | 1.63 | 1.50 | 95 | 1015.2 |
| 20260901170605 | 24 | 179 | 3.2 | 11.3 | 0.00 | 1.63 | 1.50 | 96 | 1015.3 |
| 20260901170105 | 24 | 176 | 8.0 | 14.5 | 0.00 | 1.63 | 1.50 | 97 | 1015.4 |
| 20260901165604 | 24 | 171 | 3.2 | 9.7 | 0.00 | 1.63 | 1.50 | 97 | 1015.4 |
| 20260901165104 | 23 | 266 | 4.8 | 9.7 | 0.00 | 1.63 | 1.50 | 97 | 1015.6 |
| 20260901164105 | 23 | 163 | 0.0 | 4.8 | 0.00 | 1.63 | 1.50 | 98 | 1015.7 |
| 20260901163605 | 23 | 168 | 0.0 | 1.6 | 0.00 | 1.63 | 1.50 | 98 | 1015.6 |
| 20260901162605 | 22 | 168 | 1.6 | 4.8 | 0.00 | 1.63 | 1.50 | 97 | 1015.9 |
| 20260901162104 | 22 | 156 | 0.0 | 0.0 | 0.00 | 1.63 | 1.50 | 98 | 1016.0 |
| 20260901161604 | 22 | 156 | 0.0 | 0.0 | 0.03 | 1.63 | 1.50 | 97 | 1015.9 |
| 20260901161104 | 22 | 156 | 1.6 | 4.8 | 0.03 | 1.63 | 1.50 | 97 | 1015.8 |
| 20260901160105 | 22 | 156 | 1.6 | 4.8 | 0.03 | 1.63 | 1.50 | 97 | 1016.2 |
| 20260901155105 | 22 | 156 | 0.0 | 3.2 | 0.05 | 1.63 | 1.50 | 97 | 1016.6 |
| 20260901154605 | 22 | 157 | 0.0 | 1.6 | 0.05 | 1.63 | 1.50 | 97 | 1016.6 |
| 20260901154104 | 22 | 158 | 0.0 | 0.0 | 0.05 | 1.63 | 1.50 | 97 | 1016.8 |
| 20260901153605 | 22 | 158 | 0.0 | 0.0 | 0.08 | 1.63 | 1.50 | 97 | 1016.9 |
| 20260901153104 | 22 | 186 | 0.0 | 0.0 | 0.08 | 1.63 | 1.50 | 97 | 1017.0 |
| 20260901152605 | 22 | 186 | 0.0 | 0.0 | 0.10 | 1.63 | 1.50 | 97 | 1017.1 |
| 20260901152105 | 22 | 186 | 0.0 | 0.0 | 0.13 | 1.63 | 1.50 | 97 | 1017.0 |
| 20260901151604 | 21 | 186 | 0.0 | 0.0 | 0.10 | 1.60 | 1.47 | 97 | 1016.9 |
| 20260901150604 | 21 | 184 | 0.0 | 3.2 | 0.13 | 1.60 | 1.47 | 97 | 1016.9 |
| 20260901150104 | 21 | 184 | 1.6 | 4.8 | 0.13 | 1.60 | 1.47 | 97 | 1016.8 |
| 20260901145104 | 21 | 212 | 0.0 | 0.0 | 0.10 | 1.57 | 1.45 | 97 | 1017.0 |
| 20260901144605 | 21 | 212 | 0.0 | 0.0 | 0.10 | 1.57 | 1.45 | 97 | 1016.8 |
| 20260901144104 | 21 | 212 | 0.0 | 0.0 | 0.13 | 1.57 | 1.45 | 97 | 1016.8 |
| 20260901143604 | 21 | 212 | 0.0 | 0.0 | 0.10 | 1.55 | 1.42 | 97 | 1017.0 |
| 20260901143104 | 21 | 212 | 0.0 | 0.0 | 0.13 | 1.55 | 1.42 | 97 | 1016.9 |
| 20260901142604 | 21 | 212 | 0.0 | 0.0 | 0.10 | 1.52 | 1.40 | 97 | 1016.8 |
| 20260901142105 | 21 | 212 | 0.0 | 0.0 | 0.10 | 1.50 | 1.37 | 97 | 1016.7 |
| 20260901141606 | 21 | 212 | 0.0 | 0.0 | 0.13 | 1.50 | 1.37 | 97 | 1016.9 |
| 20260901141105 | 21 | 212 | 0.0 | 0.0 | 0.13 | 1.50 | 1.37 | 97 | 1016.8 |
| 20260901140605 | 21 | 212 | 0.0 | 0.0 | 0.13 | 1.47 | 1.35 | 97 | 1017.0 |
| 20260901140105 | 21 | 212 | 0.0 | 0.0 | 0.13 | 1.47 | 1.35 | 97 | 1017.0 |
| 20260901135604 | 21 | 212 | 0.0 | 1.6 | 0.13 | 1.47 | 1.35 | 97 | 1016.9 |
| 20260901135104 | 21 | 212 | 0.0 | 0.0 | 0.13 | 1.47 | 1.35 | 97 | 1016.9 |
| 20260901134604 | 21 | 212 | 0.0 | 3.2 | 0.13 | 1.47 | 1.35 | 97 | 1016.9 |
| 20260901134105 | 21 | 122 | 0.0 | 0.0 | 0.10 | 1.45 | 1.32 | 97 | 1017.2 |
| 20260901133105 | 21 | 121 | 0.0 | 0.0 | 0.08 | 1.42 | 1.30 | 97 | 1016.9 |
| 20260901132604 | 21 | 121 | 0.0 | 0.0 | 0.08 | 1.42 | 1.30 | 97 | 1017.0 |
| 20260901132104 | 21 | 121 | 0.0 | 0.0 | 0.05 | 1.40 | 1.27 | 97 | 1017.1 |
| 20260901131604 | 21 | 121 | 0.0 | 0.0 | 0.03 | 1.37 | 1.24 | 97 | 1017.2 |
| 20260901131104 | 21 | 121 | 0.0 | 0.0 | 0.03 | 1.37 | 1.24 | 97 | 1017.1 |
| 20260901130605 | 21 | 121 | 0.0 | 0.0 | 0.00 | 1.35 | 1.22 | 97 | 1017.1 |
| 20260901130105 | 21 | 122 | 0.0 | 0.0 | 0.00 | 1.35 | 1.22 | 97 | 1016.9 |
| 20260901125605 | 21 | 122 | 0.0 | 0.0 | 0.00 | 1.35 | 1.22 | 97 | 1017.0 |
| 20260901125104 | 21 | 122 | 0.0 | 0.0 | 0.00 | 1.35 | 1.22 | 97 | 1017.3 |
| 20260901124604 | 21 | 122 | 0.0 | 0.0 | 0.00 | 1.35 | 1.22 | 97 | 1017.4 |
| 20260901124104 | 21 | 122 | 0.0 | 0.0 | 0.00 | 1.35 | 1.22 | 97 | 1017.6 |
| 20260901123604 | 21 | 122 | 0.0 | 0.0 | 0.00 | 1.35 | 1.22 | 97 | 1017.3 |
| 20260901123105 | 21 | 122 | 0.0 | 0.0 | 0.00 | 1.35 | 1.22 | 97 | 1017.3 |
| 20260901122604 | 21 | 122 | 0.0 | 0.0 | 0.03 | 1.35 | 1.22 | 97 | 1017.2 |
| 20260901122104 | 21 | 122 | 0.0 | 0.0 | 0.03 | 1.35 | 1.22 | 97 | 1017.1 |
| 20260901121105 | 21 | 122 | 0.0 | 0.0 | 0.03 | 1.35 | 1.22 | 97 | 1016.8 |
| 20260901120604 | 21 | 122 | 0.0 | 0.0 | 0.03 | 1.35 | 1.22 | 97 | 1016.9 |
| 20260901120105 | 21 | 122 | 0.0 | 0.0 | 0.03 | 1.35 | 1.22 | 97 | 1017.0 |
| 20260901115605 | 21 | 122 | 0.0 | 0.0 | 0.03 | 1.35 | 1.22 | 97 | 1016.9 |
| 20260901115104 | 21 | 122 | 0.0 | 0.0 | 0.03 | 1.35 | 1.22 | 97 | 1016.9 |
| 20260901114604 | 21 | 122 | 0.0 | 0.0 | 0.05 | 1.35 | 1.22 | 97 | 1016.7 |
| 20260901114105 | 21 | 122 | 0.0 | 0.0 | 0.05 | 1.35 | 1.22 | 97 | 1016.7 |
| 20260901113604 | 21 | 122 | 0.0 | 0.0 | 0.05 | 1.35 | 1.22 | 97 | 1016.9 |
| 20260901113104 | 21 | 122 | 0.0 | 0.0 | 0.08 | 1.35 | 1.22 | 97 | 1016.8 |
| 20260901112606 | 21 | 122 | 0.0 | 0.0 | 0.05 | 1.32 | 1.19 | 97 | 1016.8 |
| 20260901111605 | 21 | 122 | 0.0 | 0.0 | 0.05 | 1.32 | 1.19 | 97 | 1016.9 |
| 20260901111104 | 21 | 122 | 0.0 | 0.0 | 0.05 | 1.32 | 1.19 | 97 | 1017.0 |
| 20260901110605 | 21 | 122 | 0.0 | 0.0 | 0.05 | 1.32 | 1.19 | 97 | 1017.2 |
| 20260901110104 | 21 | 122 | 0.0 | 0.0 | 0.05 | 1.32 | 1.19 | 97 | 1017.0 |
| 20260901105604 | 21 | 122 | 0.0 | 0.0 | 0.05 | 1.32 | 1.19 | 96 | 1017.0 |
| 20260901105104 | 21 | 122 | 0.0 | 0.0 | 0.05 | 1.32 | 1.19 | 96 | 1017.0 |
| 20260901104106 | 20 | 122 | 0.0 | 0.0 | 0.03 | 1.30 | 1.17 | 96 | 1017.0 |
| 20260901103604 | 20 | 122 | 0.0 | 0.0 | 0.03 | 1.30 | 1.17 | 96 | 1017.1 |
| 20260901103104 | 20 | 122 | 0.0 | 0.0 | 0.00 | 1.27 | 1.14 | 96 | 1017.1 |
| 20260901102604 | 20 | 122 | 0.0 | 0.0 | 0.00 | 1.27 | 1.14 | 96 | 1017.1 |
| 20260901102105 | 20 | 122 | 0.0 | 0.0 | 0.00 | 1.27 | 1.14 | 96 | 1017.0 |
| 20260901101604 | 20 | 122 | 0.0 | 0.0 | 0.00 | 1.27 | 1.14 | 96 | 1016.9 |
| 20260901100605 | 20 | 122 | 0.0 | 0.0 | 0.00 | 1.27 | 1.14 | 96 | 1017.0 |
| 20260901100104 | 20 | 122 | 0.0 | 0.0 | 0.00 | 1.27 | 1.14 | 96 | 1016.9 |
| 20260901095605 | 20 | 122 | 0.0 | 0.0 | 0.00 | 1.27 | 1.14 | 96 | 1016.9 |
| 20260901095105 | 20 | 122 | 0.0 | 0.0 | 0.00 | 1.27 | 1.14 | 96 | 1016.8 |
| 20260901094604 | 20 | 122 | 0.0 | 0.0 | 0.00 | 1.27 | 1.14 | 96 | 1016.8 |
| 20260901094104 | 20 | 122 | 0.0 | 0.0 | 0.00 | 1.27 | 1.14 | 96 | 1016.8 |
| 20260901093604 | 20 | 122 | 0.0 | 0.0 | 0.00 | 1.27 | 1.14 | 96 | 1016.8 |
| 20260901093105 | 20 | 122 | 0.0 | 0.0 | 0.00 | 1.27 | 1.14 | 96 | 1017.0 |
| 20260901091604 | 20 | 122 | 0.0 | 0.0 | 0.00 | 1.27 | 1.14 | 96 | 1016.9 |
| 20260901091104 | 20 | 122 | 0.0 | 0.0 | 0.00 | 1.27 | 1.14 | 96 | 1016.9 |
| 20260901090606 | 20 | 122 | 0.0 | 0.0 | 0.00 | 1.27 | 1.14 | 96 | 1016.9 |
| 20260901090104 | 20 | 122 | 0.0 | 0.0 | 0.00 | 1.27 | 1.14 | 96 | 1017.0 |
| 20260901085604 | 20 | 122 | 0.0 | 0.0 | 0.00 | 1.27 | 1.14 | 96 | 1017.0 |
| 20260901085104 | 20 | 122 | 0.0 | 0.0 | 0.00 | 1.27 | 1.14 | 96 | 1017.0 |
| 20260901084604 | 20 | 122 | 0.0 | 0.0 | 0.00 | 1.27 | 1.14 | 96 | 1017.0 |
| 20260901084105 | 20 | 122 | 0.0 | 0.0 | 0.00 | 1.27 | 1.14 | 96 | 1017.0 |
| 20260901082604 | 20 | 122 | 0.0 | 0.0 | 0.00 | 1.27 | 1.14 | 96 | 1017.2 |
| 20260901082104 | 20 | 122 | 0.0 | 0.0 | 0.00 | 1.27 | 1.14 | 96 | 1017.3 |
| 20260901081106 | 20 | 122 | 0.0 | 0.0 | 0.00 | 1.27 | 1.14 | 96 | 1017.2 |
| 20260901080605 | 20 | 122 | 0.0 | 0.0 | 0.00 | 1.27 | 1.14 | 96 | 1017.3 |
| 20260901080104 | 20 | 122 | 0.0 | 0.0 | 0.00 | 1.27 | 1.14 | 96 | 1017.3 |
| 20260901075604 | 20 | 122 | 0.0 | 0.0 | 0.00 | 1.27 | 1.14 | 96 | 1017.3 |
| 20260901075105 | 20 | 122 | 0.0 | 0.0 | 0.00 | 1.27 | 1.14 | 96 | 1017.4 |
| 20260901074604 | 20 | 122 | 0.0 | 0.0 | 0.00 | 1.27 | 1.14 | 96 | 1017.5 |
| 20260901074104 | 20 | 122 | 0.0 | 0.0 | 0.00 | 1.27 | 1.14 | 96 | 1017.6 |
| 20260901073604 | 20 | 122 | 0.0 | 0.0 | 0.00 | 1.27 | 1.14 | 96 | 1017.7 |
| 20260901073104 | 20 | 122 | 0.0 | 0.0 | 0.03 | 1.27 | 1.14 | 96 | 1017.7 |
| 20260901072604 | 20 | 122 | 0.0 | 0.0 | 0.03 | 1.27 | 1.14 | 96 | 1017.7 |
| 20260901072105 | 20 | 122 | 0.0 | 0.0 | 0.03 | 1.27 | 1.14 | 96 | 1017.6 |
| 20260901071605 | 20 | 122 | 0.0 | 0.0 | 0.03 | 1.27 | 1.14 | 96 | 1017.6 |
| 20260901071104 | 20 | 122 | 0.0 | 0.0 | 0.03 | 1.27 | 1.14 | 96 | 1017.6 |
| 20260901070604 | 20 | 122 | 0.0 | 0.0 | 0.03 | 1.27 | 1.14 | 96 | 1017.6 |
| 20260901070105 | 20 | 122 | 0.0 | 0.0 | 0.03 | 1.27 | 1.14 | 96 | 1017.8 |
| 20260901065604 | 20 | 122 | 0.0 | 0.0 | 0.03 | 1.27 | 1.14 | 96 | 1017.8 |
| 20260901065105 | 20 | 122 | 0.0 | 0.0 | 0.05 | 1.27 | 1.14 | 96 | 1017.9 |
| 20260901064605 | 20 | 122 | 0.0 | 0.0 | 0.05 | 1.27 | 1.14 | 96 | 1018.0 |
| 20260901064105 | 20 | 122 | 0.0 | 0.0 | 0.08 | 1.27 | 1.14 | 96 | 1018.0 |
| 20260901063105 | 20 | 122 | 0.0 | 0.0 | 0.08 | 1.24 | 1.12 | 96 | 1018.0 |
| 20260901062604 | 20 | 122 | 0.0 | 1.6 | 0.13 | 1.24 | 1.12 | 96 | 1018.0 |
| 20260901061604 | 20 | 122 | 0.0 | 0.0 | 0.15 | 1.24 | 1.12 | 96 | 1018.1 |
| 20260901061104 | 20 | 122 | 0.0 | 0.0 | 0.18 | 1.24 | 1.12 | 95 | 1018.1 |
| 20260901060604 | 20 | 122 | 0.0 | 0.0 | 0.23 | 1.24 | 1.12 | 95 | 1018.2 |
| 20260901060104 | 20 | 122 | 0.0 | 0.0 | 0.30 | 1.24 | 1.12 | 95 | 1018.2 |
| 20260901055604 | 20 | 122 | 0.0 | 0.0 | 0.38 | 1.24 | 1.12 | 95 | 1018.3 |
| 20260901055104 | 20 | 122 | 0.0 | 1.6 | 0.41 | 1.22 | 1.09 | 95 | 1018.3 |
| 20260901054604 | 20 | 122 | 1.6 | 4.8 | 0.51 | 1.22 | 1.09 | 95 | 1018.2 |
| 20260901054105 | 20 | 121 | 0.0 | 4.8 | 0.58 | 1.19 | 1.07 | 95 | 1018.3 |
| 20260901053605 | 20 | 121 | 3.2 | 4.8 | 0.71 | 1.17 | 1.04 | 95 | 1018.4 |
| 20260901052608 | 20 | 261 | 1.6 | 4.8 | 0.71 | 1.12 | 0.99 | 95 | 1018.6 |
| 20260901052104 | 20 | 261 | 3.2 | 4.8 | 0.74 | 1.12 | 0.99 | 95 | 1018.5 |
| 20260901051104 | 20 | 256 | 0.0 | 3.2 | 0.76 | 1.07 | 0.94 | 95 | 1018.5 |
| 20260901050604 | 20 | 256 | 1.6 | 3.2 | 0.79 | 1.02 | 0.89 | 95 | 1018.5 |
| 20260901050105 | 20 | 256 | 0.0 | 1.6 | 0.79 | 0.94 | 0.81 | 95 | 1018.4 |
| 20260901045604 | 20 | 256 | 0.0 | 0.0 | 0.61 | 0.86 | 0.74 | 95 | 1018.4 |
| 20260901045104 | 20 | 256 | 0.0 | 3.2 | 0.56 | 0.81 | 0.69 | 95 | 1018.4 |
| 20260901044605 | 20 | 256 | 0.0 | 3.2 | 0.48 | 0.71 | 0.58 | 95 | 1018.5 |
| 20260901043604 | 20 | 256 | 0.0 | 0.0 | 0.25 | 0.46 | 0.33 | 95 | 1018.5 |
| 20260901043104 | 20 | 256 | 0.0 | 0.0 | 0.25 | 0.43 | 0.30 | 94 | 1018.5 |
| 20260901042604 | 21 | 256 | 0.0 | 1.6 | 0.25 | 0.41 | 0.28 | 94 | 1018.5 |
| 20260901042104 | 21 | 256 | 0.0 | 0.0 | 0.23 | 0.38 | 0.25 | 94 | 1018.6 |
| 20260901041604 | 21 | 256 | 0.0 | 0.0 | 0.20 | 0.36 | 0.23 | 94 | 1018.6 |
| 20260901041105 | 21 | 256 | 0.0 | 0.0 | 0.15 | 0.30 | 0.18 | 94 | 1018.7 |